Wind_Speed
47 47 46 45 45 44 43 43 41 40 39 37 35 34 32 30 28 26 25 24 23 23 23 23 23 23 23 22 22 23 23 24 24 24 24 24 23 23 22 22 21 21 21 20 20 20 20 19 19 18 18 18 18 17 17 16 15 14 13 12 12 10 9 8 7 7 6 5 5 5 5 5 4 3 3 3 4 5 6 6 7 8 9 10 11 11 11 11
47 46 46 45 44 44 43 43 42 41 40 38 36 34 32 30 28 26 24 24 23 23 23 23 23 23 23 22 22 22 23 23 24 24 24 24 23 23 22 21 21 21 20 20 20 20 20 20 19 19 18 18 18 17 17 16 16 15 14 13 12 10 9 8 8 7 6 6 6 6 7 6 6 5 4 4 4 5 6 6 7 8 9 10 11 11 12 12
47 46 46 45 44 44 44 43 42 42 40 39 37 35 33 30 28 26 25 24 23 23 23 23 23 23 23 23 23 23 23 23 23 23 23 23 23 22 22 21 21 20 20 20 20 20 20 20 19 19 19 19 18 17 17 16 16 15 15 13 12 11 10 8 8 7 7 7 7 7 8 7 7 6 5 5 5 6 6 7 8 9 10 10 11 12 12 13
47 46 46 45 45 44 44 43 42 42 40 39 37 35 33 30 28 27 25 25 24 24 24 24 24 24 23 23 23 23 23 23 24 24 23 23 23 22 22 21 21 20 20 19 19 20 20 20 20 19 19 19 18 17 17 17 16 16 15 13 12 11 10 9 8 8 8 8 8 8 8 8 8 7 7 6 5 7 7 7 8 9 10 11 12 12 13 13
48 47 47 46 45 45 44 43 42 42 40 39 37 35 33 31 29 28 26 26 25 25 25 24 25 25 24 24 23 23 24 24 24 24 24 23 23 22 22 22 21 20 20 20 20 20 20 20 20 19 19 18 18 17 17 17 16 15 15 14 12 11 10 9 9 9 9 9 9 9 9 8 8 8 7 6 6 7 7 8 9 10 10 11 12 13 14 14
49 48 48 47 46 45 45 44 43 42 41 39 38 36 35 33 31 29 28 27 27 26 26 26 25 25 25 25 24 24 25 25 25 24 24 24 23 23 23 22 22 21 20 20 20 20 20 20 19 19 19 18 18 17 17 17 16 15 15 14 13 12 11 10 10 10 10 9 9 9 8 8 8 9 8 6 7 7 8 9 9 10 11 12 13 14 15 15
50 49 48 48 47 46 45 44 43 42 41 40 39 37 36 34 33 31 30 29 28 28 27 27 26 26 26 26 25 25 26 25 25 25 25 24 24 24 24 23 23 22 21 21 21 21 20 20 19 19 19 18 18 18 17 17 16 16 15 14 13 12 11 11 11 10 9 9 8 8 8 8 9 9 8 6 7 7 8 9 10 11 12 13 14 15 15 16
50 49 49 48 48 47 46 46 45 43 42 41 40 39 37 36 35 33 32 31 30 29 29 28 28 27 27 27 27 27 27 26 26 26 25 25 25 25 25 24 24 23 22 22 21 21 21 20 20 19 19 19 18 18 17 17 16 16 15 14 13 13 12 11 10 9 8 8 8 7 7 8 9 10 7 6 6 7 8 9 11 11 12 13 14 15 16 17
50 50 50 49 49 48 47 47 46 45 44 43 41 40 39 38 36 35 34 32 31 31 30 30 29 28 28 28 28 28 28 27 27 27 26 26 27 27 26 25 25 24 23 22 22 22 21 21 20 20 19 19 19 18 18 17 17 16 16 15 14 13 12 11 10 9 8 8 8 7 7 8 9 9 7 5 6 8 8 9 11 11 12 13 14 15 16 17
51 51 51 50 50 49 49 48 47 46 45 44 43 41 40 39 38 37 36 34 33 32 32 31 31 30 30 29 29 29 29 28 28 28 27 27 28 28 27 26 25 25 24 23 23 23 22 21 21 20 20 20 19 19 19 18 17 17 16 15 14 13 12 11 10 9 8 8 8 8 7 7 9 10 7 6 7 8 9 10 10 11 12 13 14 15 17 18
52 52 52 51 51 50 50 49 48 47 46 45 44 43 42 41 40 39 38 36 35 34 33 32 32 31 31 30 30 30 29 29 29 29 29 28 29 29 28 27 26 26 25 24 24 23 23 22 22 22 21 21 20 20 19 19 18 18 17 16 15 14 13 12 11 10 10 9 9 9 8 8 11 12 8 7 9 8 9 10 11 12 13 14 15 16 17 18
54 53 53 52 52 51 50 50 49 48 47 46 45 44 43 42 41 40 39 38 37 35 34 34 33 33 32 32 32 31 30 31 30 30 30 30 30 30 29 28 28 27 26 26 25 24 24 23 23 23 22 22 22 21 20 20 19 18 18 17 16 15 14 13 13 12 12 11 11 11 9 10 13 13 10 8 9 9 10 11 11 12 13 14 15 16 17 18
54 54 54 53 53 52 52 51 50 50 49 48 47 46 45 44 43 42 41 39 38 37 36 35 35 34 34 34 33 32 32 32 31 31 31 31 31 31 31 30 29 28 27 27 26 26 25 25 24 24 24 24 23 22 22 21 20 20 19 18 17 16 15 15 14 14 14 13 14 13 10 13 15 14 13 11 10 11 11 12 13 14 15 15 16 17 18 19
54 55 55 54 54 54 53 53 52 51 50 50 49 48 47 45 44 43 42 41 40 38 37 37 36 36 36 35 35 34 33 33 33 32 32 32 32 32 32 31 30 29 29 28 27 27 27 26 26 26 25 25 24 23 23 22 22 21 20 19 18 17 17 17 16 16 16 16 17 15 12 14 17 15 15 14 13 13 13 13 14 15 16 16 17 18 19 19
54 54 55 55 55 55 54 54 53 53 52 51 50 49 48 47 46 45 44 42 41 40 39 38 38 37 37 36 36 35 34 34 34 33 33 33 34 34 33 32 31 31 30 29 29 28 28 28 28 27 27 26 26 24 24 23 23 22 22 21 20 19 19 18 18 19 19 19 18 17 14 14 18 18 17 17 15 15 14 15 16 16 17 18 18 19 20 21
53 54 54 55 55 55 55 55 54 54 53 53 52 51 50 48 47 46 45 44 43 42 40 40 39 38 38 38 37 37 36 35 35 34 34 34 35 35 35 34 33 32 32 31 31 30 30 30 29 29 28 28 27 26 25 25 24 25 23 22 21 20 20 20 21 22 22 21 20 19 16 15 19 20 19 19 17 16 16 17 17 17 18 19 20 21 21 22
51 52 53 54 55 55 55 55 55 55 54 54 53 52 51 50 49 48 47 46 45 43 42 41 40 40 40 39 39 39 38 37 36 35 35 36 36 36 36 36 35 34 33 33 32 32 31 31 31 31 30 29 28 27 27 27 27 26 24 22 22 22 22 22 23 23 23 22 21 21 18 16 20 21 20 20 18 17 16 17 18 19 20 20 21 22 23 23
49 50 52 53 54 55 55 55 55 55 55 55 54 54 53 52 51 49 48 47 46 45 44 43 42 41 41 40 40 40 39 38 37 36 36 36 37 37 37 37 37 36 36 35 34 34 33 33 32 32 32 30 29 29 30 30 29 27 25 24 24 24 24 24 25 25 25 24 23 22 19 17 20 21 20 20 18 17 16 18 19 19 21 22 23 23 24 25
47 48 49 50 52 53 54 55 55 55 55 55 55 55 54 53 52 51 50 49 48 48 46 45 44 43 42 41 41 42 41 40 39 38 38 38 38 39 39 39 39 38 38 37 36 35 35 34 34 33 32 31 31 33 33 31 29 27 27 27 26 26 25 25 27 27 26 26 24 23 21 18 19 21 22 21 18 16 16 18 19 20 22 23 24 25 26 26
48 47 47 48 49 51 53 54 54 55 55 55 55 56 55 55 54 53 52 51 51 50 48 47 46 45 44 43 43 43 43 42 41 40 40 39 39 40 41 41 40 40 40 38 38 37 36 36 36 35 33 34 35 35 34 32 30 30 29 29 28 27 27 27 29 28 28 28 25 25 25 20 19 20 22 23 20 17 17 19 19 21 22 24 25 26 28 28
50 49 47 47 48 49 50 51 53 54 54 55 55 55 55 55 55 54 54 53 52 52 50 49 48 46 46 45 45 45 44 44 43 43 41 40 40 40 41 42 42 41 40 40 39 39 38 38 37 36 36 36 37 36 35 34 33 32 31 30 30 29 29 29 30 29 30 30 27 27 28 24 21 21 21 23 22 19 19 20 20 21 23 25 26 28 29 29
52 50 49 48 47 48 48 49 50 52 53 53 54 54 54 55 55 55 54 54 54 53 52 51 50 48 47 47 47 46 46 46 45 44 43 42 42 41 41 42 43 42 42 42 42 41 41 41 39 39 38 38 39 38 37 36 35 34 33 32 32 31 31 31 32 32 32 33 30 29 31 28 24 24 22 22 23 23 22 21 21 23 24 26 27 29 29 29
54 52 51 50 49 48 48 48 48 49 50 51 52 53 54 54 55 55 55 55 55 55 54 53 52 51 49 48 48 48 48 48 47 46 45 45 44 43 43 43 44 44 44 44 44 44 43 43 42 41 41 41 41 40 39 38 37 36 35 34 34 34 34 34 34 34 34 35 33 32 34 32 29 27 24 23 25 25 24 23 23 24 26 27 28 29 30 31
55 54 53 52 50 50 49 48 48 48 48 49 50 51 52 53 54 55 55 56 56 56 55 55 54 53 51 50 49 49 49 49 49 49 48 47 47 45 45 44 44 45 45 45 46 46 46 45 45 44 43 43 43 42 41 40 39 38 37 37 37 37 37 37 36 36 36 36 35 35 37 36 33 30 27 25 27 26 24 24 24 26 28 28 29 30 32 32
55 56 55 54 52 51 50 49 48 48 47 47 48 49 49 51 52 53 54 56 57 57 56 56 55 54 53 51 50 50 50 50 50 50 50 49 49 48 47 46 46 46 45 46 47 48 48 47 47 46 45 45 44 44 43 43 42 41 40 40 40 40 40 39 38 38 37 37 36 36 40 41 36 32 28 27 28 26 26 27 26 27 28 29 30 31 33 34
53 55 56 56 55 53 52 51 50 49 48 47 47 47 48 49 50 51 52 55 58 57 56 56 56 55 54 52 51 51 51 51 50 51 51 51 51 50 49 48 47 47 46 47 48 49 49 48 48 48 47 46 46 46 45 45 45 44 43 43 43 43 42 41 40 40 39 39 37 38 42 43 40 35 30 29 29 27 27 28 28 28 29 30 31 32 34 35
49 51 53 55 55 55 55 54 52 51 50 49 49 48 48 48 49 50 50 54 58 56 54 55 56 55 53 52 52 52 52 50 49 51 52 52 52 51 51 50 49 48 48 48 48 48 48 48 48 48 48 48 48 47 46 46 47 47 46 45 45 44 44 43 42 42 42 41 40 40 43 44 42 39 34 32 31 29 28 29 29 30 31 31 32 34 35 37
48 49 49 50 52 55 57 57 56 54 53 52 51 51 50 50 50 50 50 54 58 55 53 54 55 54 54 53 52 53 52 50 49 50 51 51 52 52 52 51 50 50 50 50 49 48 48 48 49 49 50 50 50 49 48 49 50 50 48 48 47 46 46 45 44 44 44 44 44 43 44 46 44 43 42 37 33 31 31 31 31 31 32 33 34 35 36 37
47 47 47 48 49 50 53 55 56 57 57 56 55 54 53 53 52 52 53 56 58 56 53 52 53 53 53 53 53 53 53 52 52 51 50 51 52 52 52 51 51 51 52 52 51 50 50 50 50 50 51 51 51 51 50 51 51 51 50 50 49 48 47 47 47 46 47 47 46 46 47 47 46 47 48 43 35 33 33 32 33 34 35 36 36 37 36 37
46 46 46 48 48 47 48 49 51 55 57 58 58 58 57 57 56 56 58 58 57 57 55 53 52 52 52 52 52 53 53 53 53 52 52 52 52 53 53 52 52 53 53 53 53 53 52 52 51 51 51 51 51 51 51 51 52 52 52 51 51 50 49 49 49 47 49 49 49 49 49 48 48 48 49 45 38 36 36 35 36 37 37 38 38 39 39 38
46 46 46 46 46 47 48 47 47 49 52 53 56 59 61 61 60 62 62 58 56 59 57 54 52 51 51 51 51 51 52 52 52 51 51 51 52 53 53 53 54 54 54 54 54 54 54 53 53 52 51 51 51 51 52 52 53 53 53 53 52 52 51 50 49 49 51 52 51 51 51 51 51 48 48 48 43 41 41 41 40 39 39 40 41 41 41 39
46 46 45 44 44 45 46 46 47 48 49 47 48 52 56 61 64 65 63 58 58 61 60 56 54 52 52 52 51 51 51 51 52 51 51 50 51 51 51 52 51 51 53 53 52 53 54 53 53 52 52 52 52 52 53 54 53 53 53 52 50 50 50 51 52 53 55 54 52 52 54 54 52 49 51 52 50 48 46 44 42 42 43 44 44 44 43 41
52 49 46 44 43 42 43 45 48 50 50 48 48 49 54 61 63 60 59 60 62 62 59 58 57 55 55 55 53 52 51 51 51 51 51 51 51 51 50 51 50 51 52 52 51 52 53 53 53 54 54 53 53 53 53 52 51 50 49 49 49 49 52 55 57 57 57 55 54 54 56 57 55 52 53 53 53 53 49 45 44 45 47 47 46 46 44 43
57 55 51 48 45 43 43 45 47 48 49 50 52 53 59 64 59 52 53 58 61 61 60 60 59 57 57 56 55 54 53 52 52 52 52 51 51 51 50 50 50 50 50 51 51 52 53 53 53 53 53 52 51 50 49 48 48 49 49 50 52 53 55 57 58 58 57 56 55 55 58 59 57 56 55 54 54 54 51 49 48 49 49 49 48 47 46 45
59 59 58 54 50 47 45 46 47 47 48 51 53 56 61 62 55 49 52 55 56 57 59 62 62 61 59 58 57 56 55 54 53 53 54 53 52 51 50 49 49 49 49 50 50 50 52 52 51 50 50 49 48 48 47 47 49 51 51 53 55 55 55 56 56 57 56 57 58 59 61 62 59 58 59 58 57 54 52 52 52 51 51 51 51 49 48 47
58 60 60 59 56 52 50 49 49 47 47 50 54 56 57 55 52 51 51 53 54 54 55 58 59 60 60 59 59 58 58 57 55 55 55 54 54 52 51 49 49 49 49 50 51 51 51 51 50 49 49 48 47 47 46 47 48 50 51 54 54 53 53 53 54 55 56 58 62 63 64 63 61 61 60 59 58 56 54 53 53 53 52 52 52 51 50 49
59 59 59 59 57 55 55 54 51 49 49 51 53 54 53 51 51 53 52 51 53 54 55 57 56 54 55 55 56 57 58 58 58 58 57 56 55 54 52 51 50 50 50 49 51 52 52 52 52 51 50 49 49 49 49 49 49 51 53 53 51 51 52 52 53 55 56 60 64 64 64 63 62 63 61 58 57 56 56 56 55 54 53 52 51 52 52 51
59 60 60 58 56 56 57 58 57 53 51 53 54 53 53 52 50 51 52 52 52 54 57 59 58 56 54 53 53 54 56 58 59 59 59 59 58 55 53 53 52 51 50 50 52 52 52 53 53 53 52 52 51 51 52 52 52 53 54 52 51 52 53 53 54 56 56 59 62 62 63 64 64 63 61 58 57 57 58 57 56 55 54 52 51 51 51 49
60 61 61 58 57 57 58 61 63 60 56 56 56 52 51 52 50 50 50 50 52 54 57 57 57 58 59 57 54 53 54 56 57 58 59 60 60 58 56 55 54 54 53 53 54 54 53 54 54 54 54 54 54 54 55 54 54 53 52 51 51 52 54 54 56 57 57 59 61 61 63 64 63 61 60 59 59 59 59 58 57 57 55 52 51 51 50 48
60 61 61 59 58 59 60 62 65 66 64 59 56 54 51 50 51 51 51 50 50 52 55 56 56 58 60 59 57 55 54 53 54 56 58 59 59 59 59 58 57 57 55 56 57 57 57 58 59 59 58 58 58 57 56 54 53 53 52 53 53 53 55 56 57 58 58 59 60 61 64 64 61 58 60 61 60 60 59 59 58 58 55 53 53 52 50 47
62 63 62 60 60 61 62 64 66 69 70 65 59 57 54 51 51 52 53 54 52 51 51 53 54 55 57 58 56 55 54 54 54 55 56 57 58 58 58 58 57 56 56 56 58 59 60 61 62 63 62 62 60 57 56 55 55 55 55 55 56 56 56 58 60 60 59 59 58 59 63 63 57 56 59 61 60 59 59 59 58 58 57 56 54 52 49 46
63 64 63 61 60 62 63 65 66 69 71 70 66 61 58 55 53 52 54 56 55 54 52 50 49 50 53 54 52 51 51 51 53 54 55 56 55 56 57 56 56 55 55 56 57 57 58 60 62 64 65 64 63 61 61 60 60 60 60 60 59 60 60 61 62 62 60 60 59 60 65 61 53 54 58 60 61 61 60 60 60 59 58 57 54 51 48 47
62 63 64 63 61 62 64 66 67 69 70 70 69 68 66 62 58 56 55 56 58 58 56 54 51 49 50 51 51 50 47 44 44 47 51 53 54 54 55 56 56 56 56 57 58 57 58 60 62 64 65 65 66 66 66 65 65 66 66 65 63 63 63 62 62 61 61 63 61 63 67 62 55 56 59 61 64 65 63 62 61 60 58 57 54 51 49 49
59 60 63 64 62 61 64 66 67 68 68 68 70 72 71 69 67 63 59 56 58 60 60 59 57 53 51 52 53 53 50 45 42 41 44 48 50 50 52 54 55 56 56 56 56 56 57 59 60 61 63 65 66 67 68 68 69 69 68 67 66 65 64 63 64 64 64 65 64 66 70 66 59 59 61 63 66 66 64 62 61 59 57 55 54 52 51 51
57 59 60 62 62 61 62 64 65 66 66 67 69 71 71 72 71 68 64 60 59 59 60 61 61 58 56 55 56 57 55 51 46 43 42 44 46 47 47 50 52 53 53 53 53 53 54 55 56 58 62 65 66 66 66 65 64 64 64 63 63 62 63 63 63 63 65 67 66 68 71 67 62 62 63 63 64 64 62 61 58 56 55 54 55 55 54 53
57 59 59 60 62 63 63 63 64 67 67 67 69 70 71 72 71 71 69 67 64 60 58 59 61 62 61 60 59 59 59 56 52 49 46 43 44 45 45 46 47 48 48 49 49 50 52 53 55 56 60 62 62 61 62 60 58 59 58 58 58 58 58 59 59 61 65 67 68 69 70 67 63 61 61 61 60 60 59 58 56 54 55 56 55 55 56 55
58 58 58 59 60 62 64 64 66 67 68 69 70 71 71 71 72 72 73 72 70 66 63 61 61 62 63 63 62 61 60 58 56 53 50 47 47 47 47 47 46 45 45 46 48 50 51 52 53 53 54 53 54 56 58 58 58 58 57 57 58 57 58 59 61 63 64 65 68 67 65 64 62 57 56 57 57 57 56 57 58 58 58 57 56 55 56 54
60 58 57 59 61 62 62 63 65 66 67 68 68 69 71 71 72 73 73 73 73 72 70 68 66 63 61 61 62 62 62 60 57 53 50 51 52 51 51 51 50 48 46 45 47 50 53 53 52 52 51 49 49 51 53 53 54 55 55 56 57 57 58 60 62 63 63 66 68 64 61 64 61 55 53 55 56 56 56 58 61 61 59 57 56 55 55 54
62 60 59 60 62 62 61 60 61 64 67 68 67 67 68 70 71 72 72 72 72 72 72 72 70 67 64 63 64 64 63 62 60 54 49 48 51 52 51 51 51 51 51 50 48 48 51 52 50 51 52 51 50 51 52 52 53 53 54 55 55 56 57 59 61 62 62 64 66 63 62 65 61 55 53 54 54 54 55 58 59 59 58 56 54 53 53 53
65 63 62 63 63 62 61 62 62 63 65 67 69 69 69 69 69 70 71 73 73 72 72 71 70 69 69 68 68 68 65 63 62 58 53 49 49 50 51 50 50 50 52 53 52 51 52 51 50 51 53 53 51 51 52 53 54 55 55 56 56 56 57 59 59 58 59 60 60 58 59 61 57 51 49 48 49 50 52 54 54 54 54 53 51 52 52 53
68 67 66 67 66 65 64 64 64 64 65 66 67 69 70 71 70 69 69 71 72 72 72 72 70 69 70 71 71 70 68 65 63 61 60 59 57 54 54 54 53 54 54 53 52 52 53 53 54 55 56 55 50 49 51 52 54 58 58 56 56 56 57 57 55 54 55 56 56 55 56 55 49 44 43 44 46 49 51 52 52 51 52 52 52 53 54 55
71 70 70 70 70 69 67 67 66 67 66 65 64 65 66 68 68 68 69 69 69 71 72 72 71 71 72 72 72 70 69 68 68 66 66 66 65 62 61 59 58 59 60 60 58 56 54 54 54 54 56 55 52 52 54 54 57 60 56 51 52 54 56 56 55 54 54 55 56 57 56 52 45 43 45 47 48 49 50 51 52 51 51 52 54 55 57 58
Wind_Direction
190 190 190 190 190 190 190 191 191 191 192 192 193 193 194 195 196 197 198 198 198 198 198 198 200 201 202 202 202 203 203 205 206 207 208 209 211 213 216 219 221 222 223 222 221 220 219 218 218 218 217 215 214 215 217 219 221 223 222 222 226 227 227 226 226 229 238 252 268 284 296 301 302 313 325 335 346 350 353 353 348 346 349 350 351 351 350 349
193 193 193 193 192 192 192 192 192 192 193 193 194 195 196 197 198 200 201 202 202 203 202 202 203 204 206 205 205 205 205 206 207 208 209 211 214 216 220 223 224 224 223 222 220 218 216 215 214 214 214 213 212 213 214 216 219 221 222 223 226 228 227 226 227 233 241 254 269 281 290 293 293 295 299 307 325 331 338 343 340 341 344 344 346 348 348 347
196 195 195 195 195 195 194 194 194 194 194 195 196 197 198 199 200 202 203 205 206 206 206 206 206 207 209 208 208 208 208 208 208 209 211 214 217 220 223 225 224 222 220 218 217 216 214 212 211 211 211 211 211 212 213 215 218 220 222 224 226 228 227 227 229 236 245 256 267 277 284 286 284 285 287 291 306 315 325 333 332 336 339 339 341 345 345 345
198 198 198 197 197 197 196 196 196 196 197 198 198 199 200 201 203 205 206 208 209 209 209 209 209 210 211 212 211 211 211 211 212 212 215 218 220 222 223 222 220 217 215 214 213 213 211 210 209 209 209 209 209 211 213 215 217 220 222 224 225 226 225 227 231 240 249 259 267 274 278 278 277 278 280 284 294 303 316 324 326 331 334 334 337 339 341 341
201 201 200 200 200 199 199 199 199 199 200 200 201 201 202 204 205 207 209 210 211 212 212 211 211 212 214 214 214 214 214 214 215 216 218 220 221 221 219 217 215 213 211 210 211 211 209 208 207 208 208 209 210 211 213 215 217 219 221 222 222 223 225 230 237 246 255 262 267 269 270 269 269 270 273 279 288 297 311 317 320 325 329 331 333 334 336 336
203 203 203 203 202 202 202 202 202 202 202 203 203 204 204 206 207 209 210 212 214 214 214 214 213 214 215 216 216 217 217 216 217 219 220 221 220 218 216 214 212 211 209 208 209 209 208 208 207 208 209 209 211 212 214 216 217 218 219 220 220 222 227 234 242 249 255 259 261 261 259 260 262 264 268 274 285 295 308 313 316 321 325 328 329 330 331 331
205 205 205 205 205 205 205 205 205 205 205 206 206 206 207 208 209 210 212 213 215 215 216 216 215 216 217 218 218 219 220 219 219 220 220 220 218 215 214 213 212 211 210 208 209 209 209 209 209 209 210 211 213 214 215 215 215 215 216 218 219 223 229 236 242 246 250 253 253 253 251 254 257 260 265 272 283 293 303 308 313 319 323 326 326 326 327 327
208 208 208 208 208 208 208 208 208 208 208 208 209 209 209 210 211 212 214 215 216 217 217 217 218 218 219 219 219 220 221 221 220 220 220 219 217 214 213 213 213 212 211 211 210 211 211 211 212 212 213 213 214 215 215 214 213 212 215 218 222 227 230 234 237 239 241 244 246 246 247 252 257 261 265 272 282 291 300 305 311 317 321 323 323 323 324 325
211 210 210 210 211 211 211 210 210 210 210 210 211 211 212 212 213 214 215 217 218 218 219 219 219 220 221 221 221 222 222 222 222 221 220 218 216 214 214 214 214 214 214 213 213 214 214 214 214 214 215 215 215 214 214 213 212 214 218 222 225 226 227 229 230 232 234 238 242 245 249 255 261 265 268 274 282 291 298 303 309 315 318 320 320 321 321 321
213 213 213 213 213 213 213 213 213 213 213 213 213 213 214 214 215 216 217 218 219 220 220 220 221 221 222 223 223 223 223 223 223 223 221 219 217 215 214 215 215 215 215 215 215 216 216 216 216 216 216 215 214 213 213 213 215 219 221 222 223 222 224 226 227 231 233 238 243 246 251 259 265 267 272 280 285 292 298 302 308 312 315 317 319 319 319 319
215 215 215 215 216 216 216 216 216 216 216 216 216 216 216 216 217 217 218 219 220 221 222 222 222 223 224 224 225 225 224 224 224 224 222 220 217 216 215 215 216 216 217 217 217 217 217 218 217 217 216 215 213 213 215 217 219 221 220 219 220 221 225 227 229 234 236 240 246 248 253 261 265 269 276 283 287 294 298 302 308 310 313 315 317 318 318 318
216 216 217 217 218 218 218 218 218 218 218 218 218 219 219 219 219 220 221 222 223 223 224 224 224 225 225 225 226 226 226 226 225 225 224 221 218 217 216 216 217 218 218 218 218 217 218 218 217 217 216 215 215 216 218 220 221 220 220 219 221 224 227 231 233 237 241 244 248 249 255 260 264 272 281 281 286 294 299 304 309 310 311 314 315 317 317 317
216 217 218 219 219 219 220 221 221 220 220 220 220 220 221 221 221 222 223 224 225 226 227 227 227 227 227 227 227 227 227 227 227 226 225 223 220 218 217 218 219 219 218 218 218 217 217 217 217 217 217 217 218 219 220 221 220 220 221 222 224 227 231 235 238 241 244 247 249 251 255 262 267 275 282 282 286 293 298 304 307 308 310 312 314 315 315 316
217 218 219 220 220 221 221 222 222 222 222 222 222 222 222 222 223 223 224 226 227 228 229 230 230 229 229 229 228 228 228 228 228 227 226 224 221 219 219 219 219 219 218 218 218 218 218 217 218 218 218 219 220 221 222 223 223 223 225 226 228 232 236 240 242 245 247 248 251 254 255 264 272 277 279 283 288 292 297 301 303 306 308 310 313 313 313 313
217 219 220 221 221 222 222 223 223 223 223 224 223 223 223 224 224 225 226 227 228 230 231 231 232 231 231 230 229 229 229 229 229 228 227 225 223 221 220 220 220 220 219 219 219 220 220 219 219 220 220 221 222 223 224 226 227 227 228 230 232 235 240 244 247 248 250 251 254 258 256 261 271 275 278 282 287 291 296 298 300 303 305 308 309 310 311 310
217 218 220 221 222 223 223 224 224 224 225 225 225 225 225 225 225 226 227 228 230 231 231 232 233 232 233 232 230 230 230 230 230 229 228 227 225 223 222 222 221 221 221 221 221 222 222 221 221 221 222 223 224 225 227 229 230 231 232 234 237 240 243 247 250 252 254 255 257 259 258 259 266 271 277 281 285 289 293 296 298 301 302 305 305 307 308 308
215 217 219 221 222 223 224 225 225 226 226 226 227 227 227 227 227 228 229 230 231 231 232 233 233 233 233 232 231 231 231 231 231 230 230 228 227 225 224 223 222 222 222 222 223 223 224 224 224 224 224 225 226 228 230 232 233 235 237 239 242 244 247 250 254 257 258 259 260 261 260 260 264 269 275 279 283 288 292 294 297 299 300 301 303 304 305 306
214 215 217 219 221 223 224 225 226 227 227 228 228 228 228 229 229 230 230 231 232 232 233 233 233 233 233 232 232 233 232 231 231 231 231 230 228 227 225 224 224 223 223 224 224 225 225 226 226 227 227 228 229 231 233 234 235 239 242 244 245 247 250 254 257 259 261 262 262 263 262 261 266 272 275 277 281 288 292 293 295 297 299 300 301 302 302 304
215 216 216 217 219 221 223 225 226 227 228 228 229 230 230 230 231 231 232 232 233 233 234 234 233 234 233 233 233 233 233 232 232 232 232 231 230 229 227 226 225 225 225 225 226 226 227 228 229 230 230 230 231 233 235 237 239 241 243 245 247 249 252 256 259 261 263 263 264 265 264 260 266 273 276 278 282 288 291 292 295 297 298 299 300 300 300 303
216 216 217 218 218 220 221 223 225 226 228 229 230 230 231 232 232 233 233 233 233 234 234 234 234 234 233 232 233 233 233 233 232 232 232 232 231 230 229 228 227 227 226 227 227 228 228 229 230 231 232 233 234 236 238 240 241 242 244 247 249 251 253 256 260 263 264 263 264 266 266 263 264 269 275 281 285 288 288 290 295 298 298 299 299 299 300 303
217 217 217 218 220 220 221 222 223 225 226 228 230 231 231 232 233 233 234 234 234 234 235 235 235 234 234 233 233 233 233 233 233 233 233 233 233 232 231 230 230 230 229 229 229 229 230 231 232 232 233 235 237 239 240 241 242 244 246 248 250 252 254 256 260 262 264 265 265 267 269 268 266 267 272 279 285 288 289 292 296 297 298 298 297 298 300 303
219 218 218 218 219 220 221 222 223 224 225 227 228 229 230 231 232 233 233 234 234 235 235 235 235 235 234 234 234 233 234 234 234 234 234 234 234 234 233 233 232 232 231 231 231 231 231 232 233 234 235 236 238 240 242 243 244 246 247 249 252 253 254 256 259 261 263 266 267 269 271 271 270 269 270 275 282 287 290 294 297 298 297 297 297 298 300 302
222 221 220 220 220 221 221 222 223 224 224 225 227 228 229 230 231 232 233 233 233 234 234 235 235 235 235 234 234 233 234 234 234 235 234 234 235 235 234 234 234 233 233 233 233 233 233 233 235 235 235 237 239 241 242 244 245 247 249 251 252 254 255 256 258 260 263 266 269 271 272 272 271 270 270 273 278 284 289 293 297 297 296 296 298 300 301 301
225 224 223 222 223 223 223 223 224 225 225 226 226 228 229 229 230 231 232 232 233 233 234 234 235 236 235 235 234 234 234 234 235 235 235 235 235 235 235 235 235 235 234 235 235 235 234 235 236 236 236 238 240 242 244 245 246 247 249 251 253 254 255 256 257 259 262 266 270 273 273 270 268 269 271 272 276 282 286 291 295 294 293 295 299 301 301 301
228 227 226 225 224 225 225 226 226 226 226 227 228 228 229 230 231 231 232 232 233 233 233 234 235 236 236 236 236 236 236 235 235 236 236 236 236 236 236 236 236 236 236 237 237 236 236 237 238 238 238 239 241 243 245 246 247 248 249 251 253 253 254 256 257 259 262 265 269 273 274 272 268 267 269 271 275 280 286 291 292 291 292 296 299 301 301 299
229 229 229 228 227 227 227 228 228 228 228 229 229 230 230 231 232 232 233 234 233 232 233 234 234 235 236 237 237 237 237 236 237 237 237 237 237 237 237 237 237 238 238 238 238 238 238 239 240 241 241 241 242 243 245 247 248 248 249 250 251 253 254 256 258 260 262 264 266 268 271 273 271 269 270 272 274 279 285 288 289 289 293 296 299 300 299 298
229 229 230 230 230 230 229 229 229 229 230 230 231 231 232 232 233 234 234 236 235 232 233 235 235 236 236 237 238 238 238 238 238 239 239 239 239 239 239 239 239 240 240 240 240 240 241 242 243 243 244 243 244 245 246 247 248 248 248 249 251 253 255 257 259 261 262 263 264 265 268 271 272 272 272 271 273 279 282 284 286 289 292 295 298 298 298 298
228 228 228 229 230 231 231 231 231 231 231 231 232 232 232 232 233 234 235 237 235 232 232 235 236 237 236 236 237 238 239 238 238 239 239 240 240 239 240 240 240 241 240 241 241 241 241 242 243 243 244 244 244 245 246 247 248 248 249 250 252 253 255 257 259 260 261 262 263 264 266 269 272 275 275 272 274 278 279 282 285 287 290 293 295 296 296 298
227 226 227 228 229 230 232 233 233 233 233 233 233 234 234 233 234 234 236 236 235 234 233 234 236 237 237 237 238 239 239 239 238 238 238 239 239 239 239 240 240 241 241 241 242 241 241 242 243 244 244 245 245 245 246 247 249 250 251 252 253 254 255 256 257 259 260 261 262 264 265 268 271 274 275 275 277 278 279 281 283 286 289 291 292 294 296 297
224 225 226 229 230 229 230 232 234 235 235 235 235 235 235 236 235 236 237 235 235 235 234 233 234 236 237 238 238 239 240 239 239 239 238 239 240 240 240 240 241 241 242 242 242 242 243 243 244 245 245 246 246 247 248 249 250 251 252 253 254 255 255 256 256 258 259 260 261 264 266 268 270 270 273 276 279 281 282 282 284 287 289 290 292 294 296 297
220 221 223 227 229 228 228 229 232 235 236 237 238 238 238 238 238 238 237 235 236 237 235 233 232 234 236 238 238 239 239 240 240 240 239 240 241 241 242 242 243 244 244 244 245 245 246 246 247 248 248 248 249 249 249 249 250 251 251 252 253 254 255 257 257 258 259 260 261 264 266 267 267 270 275 279 281 282 283 284 286 288 289 290 292 294 296 298
218 217 219 222 225 226 226 226 228 231 233 235 238 240 240 240 239 239 238 235 237 237 235 235 233 233 234 236 237 237 238 239 239 240 240 240 241 242 243 244 245 246 246 247 248 249 249 249 250 250 250 250 250 250 250 250 250 250 251 253 254 256 257 258 258 258 258 260 261 263 264 265 267 270 274 278 281 282 282 285 287 289 290 291 293 295 297 300
222 218 217 218 219 222 224 224 224 227 230 231 233 235 238 239 239 240 239 238 238 238 237 236 235 234 234 235 235 236 237 238 239 240 241 241 241 241 241 243 244 245 247 247 248 248 249 249 249 250 250 250 250 251 251 252 252 253 253 253 254 255 256 256 257 257 258 259 260 261 263 265 267 270 272 275 279 281 283 285 287 288 289 291 293 296 299 302
228 224 221 219 217 217 220 221 222 224 227 228 231 233 236 238 239 240 239 239 240 240 239 239 238 236 236 236 236 237 237 238 238 239 240 240 241 241 241 243 244 246 247 247 248 249 249 249 250 251 251 251 251 251 251 251 251 251 250 251 251 252 254 256 257 258 259 260 260 261 262 264 267 270 272 274 276 279 283 286 287 287 288 290 293 296 300 302
229 229 227 225 222 220 219 219 219 221 224 226 228 230 234 237 238 238 238 238 239 239 240 240 240 239 238 237 237 238 239 239 239 239 240 240 240 240 241 242 243 245 247 248 249 250 251 251 251 251 252 252 252 251 250 249 249 249 250 250 252 254 256 257 258 259 261 261 260 259 261 263 266 270 273 275 277 279 282 284 285 286 289 291 294 297 300 301
229 230 230 229 228 226 223 221 220 220 222 225 227 228 231 235 236 236 238 238 238 238 239 242 242 241 240 239 239 240 240 240 241 241 241 242 242 240 240 240 241 243 244 246 247 248 249 249 248 249 250 250 251 251 250 249 249 250 250 251 253 255 255 256 257 258 259 259 259 259 261 264 267 269 271 274 277 280 281 282 283 285 288 290 294 298 300 300
229 230 230 230 229 227 225 223 222 220 220 224 227 228 229 230 232 234 236 237 237 237 238 241 242 242 241 241 240 241 242 242 243 243 242 242 242 241 241 241 242 242 243 245 247 247 247 247 246 245 246 246 246 248 247 247 247 247 248 249 250 251 251 252 255 255 256 258 260 261 263 265 266 268 270 272 275 278 279 280 281 283 286 288 293 297 298 299
230 229 230 229 228 226 224 222 222 221 221 224 226 228 228 227 228 231 233 234 235 235 235 237 239 240 240 240 239 239 240 240 241 242 243 243 242 241 241 242 242 243 243 245 247 247 248 249 247 246 247 247 246 247 247 247 247 248 249 249 249 250 251 252 254 256 257 260 261 262 263 264 265 268 271 273 274 276 277 279 281 283 285 289 293 295 296 297
231 230 229 229 228 226 223 222 222 222 222 223 224 225 227 226 226 229 231 231 234 235 236 236 237 239 239 239 239 240 240 240 239 240 240 242 241 240 240 241 242 242 243 244 246 246 247 249 249 247 247 248 247 247 247 248 250 251 252 252 252 253 254 255 255 257 258 259 261 261 261 262 265 269 272 273 273 275 277 279 281 283 286 290 292 292 292 292
232 231 229 228 228 227 224 222 223 224 225 224 222 223 224 223 224 227 228 229 230 233 236 237 238 240 241 239 239 240 242 242 240 239 240 240 240 239 239 240 240 241 242 243 245 245 245 246 247 247 246 247 247 248 249 250 252 254 255 255 254 255 256 257 257 257 258 259 261 262 262 263 266 269 271 272 273 275 277 279 281 284 288 290 290 290 289 288
233 232 230 228 228 229 227 225 224 226 227 226 223 222 222 221 222 225 227 228 228 228 230 233 236 239 241 241 239 240 243 244 242 241 240 239 239 239 239 240 241 242 243 245 245 246 247 248 248 248 248 249 250 251 251 251 251 252 253 253 254 254 255 256 256 256 257 258 260 263 264 265 268 270 271 273 274 276 278 280 283 286 287 288 288 289 289 287
232 232 231 230 229 229 229 228 226 227 228 227 226 225 223 221 222 224 226 227 227 226 225 226 229 233 237 238 239 240 242 245 246 245 242 239 238 239 240 241 242 243 244 246 246 247 248 249 248 248 249 250 250 249 249 249 249 250 250 250 251 252 253 254 255 257 259 260 261 263 265 267 269 271 272 275 277 278 279 282 284 285 286 287 288 288 287 285
232 232 231 231 230 230 230 230 228 228 228 227 228 229 228 226 224 224 225 227 227 226 225 224 224 227 230 232 233 234 235 238 242 245 245 242 239 239 240 241 242 243 243 245 246 246 246 247 247 248 248 248 249 249 249 249 249 249 249 250 250 251 253 255 257 259 260 261 263 265 266 268 270 271 272 275 277 278 279 281 283 284 286 287 287 286 284 284
232 231 231 231 230 231 232 232 231 231 230 228 229 230 231 230 228 226 226 227 227 226 226 225 225 226 227 227 228 229 230 232 236 240 243 243 240 238 239 240 241 241 242 244 244 245 246 247 247 248 249 248 248 249 249 250 251 251 252 253 254 255 256 257 259 261 261 262 264 265 266 268 269 270 271 272 274 277 279 281 282 284 285 285 284 283 283 283
232 231 230 230 230 230 231 233 233 233 232 231 231 231 232 232 231 229 228 228 228 227 227 226 226 227 228 228 228 228 229 232 236 237 238 240 239 238 237 238 240 241 241 242 243 244 245 246 246 246 247 248 249 251 252 254 255 257 257 258 259 260 260 260 261 261 262 262 263 263 265 267 268 269 270 272 274 278 280 281 282 283 283 282 281 282 282 281
232 232 231 230 231 230 230 230 232 233 232 232 232 231 231 232 232 231 230 230 229 229 228 227 227 229 230 230 231 230 230 232 236 237 236 235 235 234 233 234 237 240 241 242 243 244 244 245 246 247 248 250 252 254 255 256 256 257 257 257 258 257 258 258 257 258 261 262 261 262 265 268 268 270 272 275 276 278 279 280 281 281 279 279 279 281 281 281
231 232 232 232 232 233 231 230 230 232 233 233 233 232 232 232 232 232 232 232 231 231 231 230 230 230 231 231 232 232 232 234 236 238 238 233 230 230 231 231 233 237 240 243 244 244 244 244 245 248 250 250 252 253 254 254 254 254 255 255 255 256 256 256 256 258 261 261 261 264 268 269 269 270 272 274 275 276 278 278 278 276 275 277 278 279 279 279
233 232 232 233 234 234 234 233 233 233 234 235 235 234 233 233 233 233 234 234 234 233 233 233 232 232 232 233 234 234 234 235 235 237 239 236 232 232 233 233 233 234 236 240 243 245 246 246 245 247 249 249 249 250 252 253 253 254 254 254 255 255 255 256 258 261 262 262 264 266 267 267 268 269 270 271 273 274 275 274 274 274 275 276 276 276 276 276
236 234 233 234 236 236 236 235 235 234 234 235 235 235 235 235 235 235 236 236 236 236 236 236 234 234 235 235 236 236 235 235 234 233 235 237 235 234 236 237 237 236 235 236 239 243 246 246 246 247 249 247 247 249 251 253 253 254 254 254 253 253 254 257 259 261 261 261 263 265 264 265 268 270 270 269 270 270 270 270 271 273 274 273 273 273 273 273
238 237 236 236 237 237 236 236 236 235 234 235 235 234 235 236 236 236 236 237 238 238 238 238 236 235 236 236 238 238 237 237 236 233 232 233 233 233 234 234 236 237 236 237 240 243 246 246 244 246 247 246 245 247 249 250 251 252 252 252 252 253 255 257 258 259 259 260 262 264 264 265 268 270 269 267 266 265 264 264 265 266 267 267 267 268 268 269
239 238 238 238 238 237 237 236 237 237 236 236 236 236 236 236 237 238 238 238 238 239 239 239 238 237 237 237 237 238 238 238 238 235 233 233 232 231 232 231 232 234 235 236 238 241 244 244 243 246 248 246 244 246 247 248 250 249 247 248 250 253 256 257 257 258 259 260 262 261 261 264 268 268 265 262 260 258 258 259 259 258 259 260 261 263 265 266
239 239 239 240 239 238 237 237 237 237 237 237 238 238 238 238 238 239 240 240 240 240 240 239 238 239 239 239 238 238 238 239 240 239 237 236 234 233 233 233 232 234 235 236 238 240 243 244 243 246 250 250 247 248 249 249 250 248 243 245 250 253 255 256 256 256 258 260 261 259 260 264 264 260 259 259 257 256 256 258 259 260 259 260 261 262 264 264
Height
5798 5800 5803 5806 5808 5810 5813 5816 5818 5821 5824 5827 5829 5832 5834 5836 5839 5841 5842 5844 5846 5848 5850 5851 5853 5854 5856 5857 5859 5860 5862 5863 5865 5866 5868 5869 5871 5872 5873 5874 5876 5876 5877 5879 5880 5881 5882 5884 5885 5886 5888 5889 5890 5891 5892 5892 5893 5894 5894 5895 5896 5896 5897 5897 5898 5898 5898 5898 5898 5898 5897 5897 5897 5897 5897 5897 5897 5897 5897 5896 5896 5895 5894 5894 5893 5893 5892 5891
5796 5799 5802 5804 5807 5809 5811 5814 5816 5819 5822 5825 5827 5830 5832 5835 5837 5839 5841 5843 5845 5846 5848 5850 5852 5853 5854 5856 5858 5859 5861 5862 5864 5865 5867 5868 5869 5871 5872 5873 5874 5875 5876 5877 5878 5879 5881 5882 5883 5885 5886 5887 5889 5890 5890 5891 5892 5893 5893 5894 5895 5896 5896 5896 5897 5897 5897 5897 5897 5897 5897 5896 5896 5896 5896 5896 5896 5896 5896 5896 5895 5894 5894 5893 5893 5892 5891 5891
5794 5797 5800 5802 5805 5808 5810 5812 5815 5817 5820 5823 5825 5828 5830 5832 5835 5837 5839 5841 5843 5845 5847 5849 5850 5852 5853 5855 5856 5858 5859 5861 5862 5864 5865 5867 5868 5869 5870 5871 5872 5873 5874 5876 5877 5878 5879 5881 5882 5883 5885 5886 5887 5888 5889 5890 5891 5891 5892 5893 5894 5895 5895 5896 5896 5896 5896 5896 5896 5896 5896 5896 5895 5895 5896 5896 5896 5896 5896 5895 5895 5894 5893 5893 5892 5891 5891 5890
5792 5795 5798 5800 5803 5806 5808 5811 5813 5815 5818 5820 5823 5825 5828 5830 5832 5835 5837 5839 5841 5843 5845 5847 5849 5850 5852 5853 5855 5856 5858 5859 5861 5862 5864 5865 5867 5868 5869 5870 5871 5872 5873 5874 5876 5877 5878 5880 5881 5882 5883 5885 5886 5887 5888 5889 5890 5890 5891 5892 5893 5894 5894 5895 5895 5895 5895 5896 5896 5896 5895 5895 5895 5895 5895 5895 5895 5895 5895 5895 5894 5893 5893 5892 5891 5891 5890 5889
5789 5792 5795 5798 5801 5804 5806 5809 5811 5814 5816 5818 5821 5823 5825 5828 5830 5832 5835 5837 5839 5842 5844 5846 5847 5849 5850 5852 5853 5855 5856 5858 5859 5861 5862 5864 5865 5866 5868 5869 5870 5871 5872 5874 5875 5876 5877 5878 5880 5881 5882 5883 5885 5886 5887 5888 5889 5889 5890 5891 5892 5892 5893 5893 5894 5894 5894 5895 5895 5894 5894 5894 5894 5894 5894 5894 5895 5895 5894 5894 5893 5893 5892 5891 5890 5890 5889 5889
5786 5790 5793 5796 5799 5802 5804 5807 5809 5812 5814 5816 5819 5821 5823 5826 5828 5830 5833 5835 5837 5840 5842 5844 5845 5847 5849 5850 5852 5853 5854 5856 5858 5859 5861 5862 5864 5865 5866 5868 5869 5870 5871 5873 5874 5875 5876 5877 5878 5880 5881 5882 5883 5885 5886 5887 5887 5888 5889 5890 5891 5891 5892 5892 5893 5893 5893 5893 5893 5893 5893 5893 5893 5893 5893 5894 5894 5894 5893 5893 5892 5892 5891 5890 5890 5889 5888 5887
5784 5787 5791 5794 5797 5799 5802 5805 5807 5809 5812 5814 5817 5819 5821 5824 5826 5828 5831 5833 5835 5838 5840 5842 5844 5845 5847 5848 5850 5851 5853 5855 5856 5858 5859 5861 5862 5864 5865 5867 5868 5869 5870 5872 5873 5874 5875 5876 5877 5878 5880 5881 5882 5883 5884 5885 5886 5887 5888 5889 5889 5890 5891 5891 5891 5892 5892 5892 5892 5892 5892 5892 5891 5892 5892 5893 5893 5893 5892 5892 5891 5891 5890 5889 5889 5888 5887 5886
5782 5785 5788 5791 5794 5797 5799 5802 5804 5807 5809 5812 5814 5817 5819 5822 5824 5826 5829 5831 5833 5836 5838 5840 5842 5843 5845 5847 5848 5850 5851 5853 5855 5856 5858 5859 5861 5862 5864 5865 5867 5868 5869 5870 5872 5873 5874 5875 5876 5877 5878 5880 5881 5882 5883 5884 5885 5886 5886 5887 5888 5889 5889 5890 5890 5891 5891 5891 5891 5891 5891 5891 5890 5891 5891 5892 5892 5892 5891 5891 5890 5890 5889 5888 5888 5887 5886 5885
5779 5782 5785 5788 5791 5794 5797 5799 5802 5804 5807 5809 5812 5814 5817 5819 5822 5824 5826 5829 5831 5833 5835 5838 5840 5841 5843 5845 5846 5848 5849 5851 5853 5854 5856 5858 5859 5861 5862 5864 5865 5866 5868 5869 5870 5871 5872 5874 5875 5876 5877 5879 5880 5881 5882 5883 5884 5884 5885 5886 5887 5888 5888 5889 5889 5890 5890 5890 5890 5890 5890 5890 5889 5889 5890 5891 5891 5891 5890 5890 5889 5889 5888 5887 5887 5886 5885 5884
5775 5779 5782 5785 5788 5791 5794 5797 5799 5802 5804 5807 5809 5811 5814 5816 5819 5821 5824 5826 5828 5831 5833 5835 5837 5839 5841 5843 5844 5846 5847 5849 5851 5852 5854 5856 5857 5859 5861 5862 5863 5865 5866 5868 5869 5870 5871 5872 5873 5875 5876 5877 5878 5880 5881 5882 5883 5883 5884 5885 5886 5886 5887 5887 5888 5888 5889 5889 5889 5889 5888 5888 5888 5888 5889 5890 5889 5889 5889 5889 5888 5888 5887 5886 5886 5885 5884 5883
5772 5775 5778 5781 5784 5787 5790 5793 5796 5799 5801 5804 5806 5809 5811 5814 5816 5819 5821 5823 5826 5828 5830 5832 5835 5837 5838 5840 5842 5843 5845 5847 5849 5850 5852 5854 5855 5857 5859 5860 5862 5863 5865 5866 5867 5868 5870 5871 5872 5873 5874 5876 5877 5878 5879 5880 5881 5882 5883 5883 5884 5885 5886 5886 5887 5887 5887 5887 5887 5887 5887 5887 5886 5886 5888 5888 5888 5888 5888 5887 5887 5886 5886 5885 5884 5884 5883 5882
5768 5771 5774 5777 5781 5784 5787 5790 5792 5795 5798 5801 5803 5806 5808 5811 5813 5816 5818 5820 5823 5825 5827 5830 5832 5834 5836 5838 5839 5841 5843 5845 5847 5849 5850 5852 5853 5855 5857 5858 5860 5861 5863 5864 5865 5867 5868 5869 5870 5872 5873 5874 5876 5877 5878 5879 5880 5881 5881 5882 5883 5884 5884 5885 5885 5885 5886 5886 5886 5886 5886 5886 5885 5885 5886 5887 5887 5886 5886 5886 5886 5885 5884 5884 5883 5882 5881 5880
5763 5767 5770 5773 5777 5780 5783 5786 5789 5792 5795 5797 5800 5802 5805 5808 5810 5813 5815 5818 5820 5822 5825 5827 5829 5831 5833 5835 5836 5839 5841 5842 5844 5846 5848 5850 5851 5853 5855 5856 5858 5859 5861 5862 5863 5865 5866 5868 5869 5870 5872 5873 5874 5875 5876 5877 5878 5879 5880 5880 5881 5882 5883 5883 5883 5884 5884 5884 5884 5884 5885 5884 5883 5884 5884 5885 5885 5885 5885 5884 5884 5884 5883 5882 5882 5881 5880 5879
5759 5763 5766 5769 5773 5776 5779 5782 5785 5788 5791 5793 5796 5799 5802 5805 5807 5810 5812 5815 5817 5820 5822 5824 5826 5828 5830 5832 5834 5836 5838 5840 5842 5844 5846 5847 5849 5851 5852 5854 5856 5857 5859 5860 5861 5863 5864 5866 5867 5869 5870 5871 5872 5874 5875 5875 5876 5877 5878 5879 5880 5880 5881 5881 5881 5882 5882 5882 5882 5883 5884 5882 5881 5882 5882 5883 5884 5884 5883 5883 5883 5882 5881 5881 5880 5879 5878 5878
5755 5759 5762 5765 5768 5771 5774 5777 5781 5784 5787 5790 5793 5795 5798 5801 5804 5806 5809 5811 5814 5816 5819 5821 5823 5825 5827 5829 5831 5833 5835 5838 5839 5841 5843 5845 5847 5848 5850 5852 5853 5855 5856 5858 5859 5861 5862 5864 5865 5867 5868 5869 5871 5872 5873 5874 5874 5875 5876 5877 5878 5879 5879 5879 5879 5879 5879 5880 5880 5881 5882 5882 5880 5880 5880 5881 5882 5882 5882 5881 5881 5881 5880 5879 5879 5878 5877 5876
5750 5754 5758 5761 5764 5767 5770 5773 5776 5779 5782 5786 5788 5791 5794 5797 5800 5802 5805 5808 5810 5813 5815 5817 5820 5822 5824 5826 5829 5831 5833 5835 5837 5839 5841 5842 5844 5846 5848 5849 5851 5852 5854 5856 5857 5859 5860 5862 5863 5865 5866 5867 5869 5870 5871 5872 5872 5873 5874 5875 5876 5877 5877 5877 5877 5877 5877 5878 5878 5878 5880 5881 5879 5878 5878 5879 5880 5880 5880 5880 5879 5879 5878 5878 5877 5876 5875 5874
5745 5749 5753 5756 5759 5763 5766 5769 5772 5775 5778 5781 5784 5787 5790 5793 5796 5798 5801 5804 5806 5809 5811 5813 5816 5819 5820 5823 5826 5827 5829 5832 5834 5836 5838 5840 5841 5843 5845 5847 5848 5850 5851 5853 5855 5856 5858 5859 5861 5862 5864 5865 5867 5868 5869 5869 5869 5870 5873 5874 5874 5875 5875 5875 5875 5874 5875 5875 5876 5876 5878 5879 5877 5876 5877 5877 5878 5879 5879 5878 5877 5877 5876 5876 5875 5874 5873 5872
5741 5744 5747 5751 5754 5758 5761 5764 5767 5770 5774 5777 5780 5783 5786 5789 5792 5794 5797 5799 5802 5805 5807 5809 5812 5815 5817 5820 5822 5824 5826 5829 5831 5833 5835 5837 5838 5840 5842 5843 5845 5847 5848 5850 5852 5853 5855 5857 5858 5860 5861 5863 5865 5865 5865 5866 5867 5869 5871 5872 5872 5872 5873 5873 5872 5872 5872 5872 5873 5874 5875 5876 5875 5874 5875 5875 5876 5877 5877 5876 5875 5875 5874 5873 5873 5872 5871 5870
5736 5740 5743 5746 5749 5753 5756 5760 5763 5766 5769 5773 5776 5779 5782 5784 5787 5790 5792 5795 5798 5800 5803 5805 5808 5811 5814 5817 5819 5821 5823 5825 5828 5829 5831 5833 5835 5837 5839 5840 5842 5844 5845 5847 5849 5851 5853 5854 5855 5857 5859 5861 5861 5861 5862 5864 5866 5867 5868 5869 5870 5870 5871 5871 5869 5869 5870 5869 5870 5871 5872 5874 5874 5872 5872 5872 5874 5875 5875 5874 5873 5873 5872 5871 5870 5869 5868 5867
5732 5735 5738 5742 5745 5748 5752 5755 5759 5762 5765 5768 5771 5774 5777 5780 5783 5785 5788 5791 5793 5796 5798 5801 5804 5807 5810 5813 5814 5817 5819 5822 5824 5826 5828 5830 5832 5833 5835 5837 5839 5840 5842 5844 5846 5848 5850 5851 5853 5854 5856 5857 5857 5858 5859 5862 5863 5864 5865 5866 5867 5868 5868 5868 5867 5867 5866 5866 5868 5868 5868 5871 5872 5871 5870 5869 5871 5873 5872 5872 5871 5871 5869 5868 5867 5866 5865 5864
5728 5731 5734 5738 5741 5744 5747 5750 5754 5757 5760 5764 5767 5770 5773 5775 5778 5780 5783 5786 5788 5792 5794 5797 5800 5803 5805 5808 5810 5813 5815 5818 5820 5822 5824 5827 5828 5830 5832 5834 5836 5837 5840 5841 5843 5845 5846 5848 5850 5851 5852 5853 5854 5855 5857 5859 5860 5861 5862 5863 5864 5865 5865 5865 5864 5864 5863 5862 5865 5865 5864 5867 5869 5869 5869 5868 5868 5869 5869 5870 5869 5868 5867 5866 5864 5863 5862 5861
5723 5726 5730 5733 5737 5740 5743 5746 5749 5752 5756 5759 5762 5765 5767 5770 5773 5776 5779 5781 5783 5787 5789 5792 5795 5798 5801 5804 5806 5809 5812 5814 5816 5818 5821 5823 5825 5827 5829 5831 5832 5834 5836 5837 5839 5841 5842 5844 5846 5847 5849 5850 5851 5852 5854 5855 5857 5858 5859 5860 5861 5862 5862 5862 5861 5861 5860 5859 5861 5862 5860 5862 5865 5866 5867 5867 5866 5866 5866 5867 5867 5865 5864 5863 5861 5860 5859 5858
5720 5723 5726 5729 5732 5735 5738 5741 5744 5748 5751 5754 5757 5759 5762 5765 5768 5771 5773 5775 5778 5781 5784 5787 5790 5793 5796 5799 5802 5805 5807 5809 5811 5814 5816 5818 5820 5822 5824 5826 5828 5830 5832 5834 5835 5837 5839 5840 5842 5843 5845 5846 5847 5849 5850 5852 5854 5855 5856 5857 5857 5858 5858 5858 5858 5858 5858 5856 5857 5858 5856 5857 5861 5862 5865 5865 5863 5864 5864 5864 5864 5863 5861 5860 5859 5858 5856 5855
5716 5719 5722 5725 5729 5732 5734 5737 5740 5743 5746 5749 5752 5755 5758 5760 5763 5765 5767 5769 5772 5776 5779 5782 5785 5789 5792 5794 5797 5800 5802 5805 5807 5809 5811 5813 5815 5817 5820 5821 5823 5825 5828 5829 5831 5832 5835 5836 5837 5839 5841 5842 5844 5845 5847 5848 5850 5851 5852 5853 5853 5854 5854 5854 5855 5855 5855 5854 5854 5855 5852 5851 5855 5859 5861 5862 5861 5861 5862 5861 5861 5860 5858 5857 5856 5855 5853 5852
5711 5715 5718 5721 5725 5728 5731 5733 5736 5739 5742 5745 5747 5751 5753 5755 5758 5760 5762 5763 5766 5771 5774 5778 5781 5784 5786 5790 5793 5796 5797 5800 5802 5804 5806 5808 5810 5813 5815 5817 5819 5821 5823 5825 5826 5828 5830 5832 5833 5835 5837 5839 5841 5842 5843 5844 5846 5847 5848 5849 5848 5849 5849 5850 5851 5851 5852 5852 5852 5852 5847 5844 5848 5854 5858 5858 5858 5859 5859 5859 5858 5856 5855 5854 5854 5852 5850 5848
5706 5709 5713 5717 5721 5724 5727 5729 5732 5734 5738 5740 5743 5746 5748 5751 5753 5755 5757 5758 5760 5767 5770 5773 5776 5779 5783 5786 5789 5791 5792 5795 5798 5800 5801 5803 5805 5808 5810 5812 5815 5817 5818 5819 5821 5824 5826 5828 5829 5831 5833 5835 5837 5838 5839 5840 5841 5842 5844 5844 5843 5844 5845 5846 5847 5848 5849 5849 5850 5850 5845 5839 5839 5847 5854 5855 5855 5856 5856 5855 5854 5853 5852 5851 5850 5849 5847 5844
5700 5704 5708 5712 5717 5720 5722 5724 5727 5731 5734 5736 5739 5741 5743 5747 5748 5751 5753 5751 5754 5763 5767 5768 5772 5776 5780 5782 5784 5785 5787 5792 5795 5794 5797 5799 5801 5803 5805 5807 5810 5812 5813 5815 5817 5821 5823 5824 5825 5827 5829 5831 5833 5834 5835 5835 5835 5837 5838 5839 5839 5840 5841 5842 5843 5844 5844 5845 5846 5845 5844 5839 5834 5837 5848 5851 5852 5854 5854 5852 5851 5850 5849 5848 5847 5846 5843 5841
5695 5699 5703 5707 5711 5713 5715 5719 5723 5727 5729 5731 5734 5736 5738 5742 5743 5746 5747 5742 5749 5760 5762 5764 5769 5772 5775 5776 5778 5779 5783 5788 5789 5789 5792 5794 5795 5798 5800 5803 5805 5806 5808 5809 5812 5816 5818 5819 5820 5822 5823 5825 5828 5829 5829 5829 5830 5831 5833 5833 5835 5836 5836 5837 5838 5839 5839 5840 5841 5841 5841 5839 5833 5831 5837 5844 5849 5851 5850 5849 5848 5847 5846 5845 5844 5842 5840 5838
5691 5693 5697 5701 5704 5708 5711 5715 5719 5721 5723 5726 5728 5730 5733 5735 5737 5740 5737 5736 5746 5755 5758 5762 5764 5766 5769 5771 5773 5775 5778 5782 5782 5784 5787 5787 5789 5792 5794 5798 5799 5800 5802 5804 5808 5810 5812 5813 5815 5816 5818 5820 5822 5823 5823 5824 5825 5827 5828 5829 5830 5831 5831 5832 5832 5833 5834 5835 5836 5836 5836 5837 5833 5827 5827 5835 5844 5846 5846 5846 5844 5843 5842 5841 5840 5838 5837 5836
5686 5689 5692 5694 5698 5703 5707 5710 5713 5715 5718 5721 5722 5725 5728 5728 5731 5731 5727 5734 5746 5749 5751 5757 5759 5762 5764 5766 5768 5770 5773 5775 5777 5779 5781 5782 5785 5787 5789 5792 5792 5794 5797 5800 5802 5804 5806 5808 5809 5811 5813 5815 5816 5817 5819 5819 5820 5822 5824 5824 5825 5825 5825 5826 5827 5829 5828 5829 5832 5830 5831 5834 5830 5824 5822 5829 5838 5841 5840 5841 5840 5839 5838 5836 5835 5834 5833 5832
5680 5684 5687 5689 5693 5698 5702 5706 5709 5711 5713 5715 5717 5719 5721 5723 5724 5720 5721 5736 5744 5740 5744 5750 5754 5758 5760 5761 5763 5765 5767 5769 5771 5773 5775 5778 5780 5781 5785 5786 5788 5791 5792 5795 5798 5800 5801 5803 5805 5807 5809 5810 5811 5812 5813 5814 5815 5817 5818 5819 5818 5818 5820 5820 5823 5824 5822 5824 5828 5826 5826 5828 5825 5821 5820 5823 5830 5834 5835 5834 5835 5834 5832 5831 5830 5829 5828 5827
5675 5678 5681 5684 5688 5692 5696 5702 5706 5706 5708 5711 5713 5713 5715 5715 5712 5711 5723 5736 5734 5730 5738 5744 5749 5753 5754 5754 5756 5758 5761 5763 5765 5767 5769 5772 5774 5777 5780 5781 5784 5786 5787 5792 5794 5794 5796 5798 5800 5801 5803 5805 5806 5806 5806 5807 5809 5811 5812 5813 5813 5814 5815 5815 5817 5817 5816 5819 5823 5822 5820 5819 5819 5819 5819 5819 5822 5826 5829 5829 5829 5828 5826 5825 5824 5824 5823 5822
5669 5673 5676 5678 5683 5687 5691 5695 5698 5699 5703 5706 5707 5707 5707 5703 5701 5711 5724 5728 5724 5726 5734 5738 5742 5745 5745 5747 5749 5752 5755 5757 5759 5761 5763 5766 5768 5771 5774 5776 5779 5780 5782 5787 5787 5787 5789 5791 5793 5795 5796 5799 5799 5800 5801 5803 5805 5806 5807 5809 5808 5808 5808 5808 5810 5809 5810 5814 5817 5816 5814 5812 5813 5815 5816 5817 5817 5818 5822 5824 5825 5823 5820 5819 5819 5818 5817 5817
5663 5667 5670 5673 5678 5681 5685 5688 5691 5694 5697 5699 5699 5700 5696 5692 5699 5712 5718 5718 5719 5724 5728 5730 5732 5735 5737 5741 5744 5747 5749 5751 5754 5755 5757 5759 5761 5765 5769 5771 5774 5775 5778 5780 5780 5782 5783 5784 5789 5790 5791 5793 5794 5795 5796 5798 5799 5799 5800 5801 5800 5802 5802 5801 5803 5803 5804 5808 5809 5809 5807 5806 5808 5810 5811 5813 5814 5815 5817 5818 5818 5817 5815 5813 5814 5814 5813 5811
5656 5660 5664 5668 5672 5675 5679 5683 5685 5688 5690 5691 5691 5690 5686 5688 5700 5709 5710 5711 5714 5718 5721 5720 5723 5727 5730 5734 5738 5740 5743 5745 5748 5750 5750 5752 5756 5760 5764 5766 5769 5771 5773 5774 5775 5777 5777 5779 5784 5785 5785 5787 5788 5789 5790 5791 5791 5792 5794 5794 5794 5798 5798 5796 5796 5798 5800 5800 5800 5802 5800 5801 5805 5805 5805 5806 5808 5812 5814 5813 5812 5811 5810 5808 5807 5808 5807 5806
5649 5653 5657 5662 5666 5670 5673 5675 5679 5681 5683 5683 5681 5680 5682 5689 5697 5701 5703 5706 5709 5713 5714 5713 5715 5720 5724 5728 5731 5733 5736 5739 5742 5743 5745 5747 5750 5754 5759 5762 5764 5766 5768 5769 5769 5771 5771 5773 5777 5777 5779 5781 5781 5782 5783 5784 5784 5786 5787 5788 5790 5793 5792 5789 5789 5792 5793 5789 5791 5795 5794 5797 5802 5800 5800 5802 5803 5806 5808 5807 5806 5805 5805 5804 5801 5801 5800 5799
5643 5646 5650 5655 5660 5662 5665 5669 5672 5673 5675 5674 5672 5674 5681 5686 5691 5694 5697 5700 5702 5706 5708 5706 5709 5714 5717 5721 5725 5728 5730 5732 5734 5736 5739 5742 5744 5749 5755 5757 5759 5760 5763 5764 5762 5763 5764 5764 5768 5770 5771 5773 5774 5774 5775 5776 5777 5778 5780 5782 5785 5785 5783 5783 5782 5783 5785 5781 5783 5790 5790 5792 5795 5793 5795 5800 5800 5801 5801 5800 5800 5800 5800 5800 5799 5796 5794 5792
5636 5640 5644 5648 5652 5654 5657 5661 5663 5664 5666 5664 5664 5669 5675 5680 5685 5688 5690 5693 5695 5698 5699 5700 5703 5707 5710 5714 5717 5721 5722 5723 5726 5729 5733 5734 5738 5745 5750 5751 5753 5755 5757 5757 5754 5756 5758 5757 5760 5763 5764 5765 5767 5767 5767 5770 5771 5772 5774 5777 5778 5776 5777 5779 5776 5776 5779 5775 5776 5782 5783 5784 5787 5787 5790 5795 5795 5794 5793 5793 5794 5794 5794 5795 5795 5792 5789 5787
5629 5632 5637 5642 5644 5645 5649 5652 5654 5656 5655 5652 5656 5664 5669 5675 5680 5681 5684 5687 5689 5691 5692 5694 5698 5700 5702 5706 5710 5713 5714 5717 5720 5723 5725 5727 5732 5740 5744 5744 5746 5748 5749 5748 5747 5749 5752 5750 5752 5756 5758 5758 5759 5760 5762 5765 5766 5767 5769 5771 5772 5772 5772 5773 5771 5771 5772 5769 5769 5773 5775 5776 5781 5785 5786 5787 5788 5787 5787 5788 5787 5787 5788 5789 5789 5787 5785 5783
5621 5625 5631 5636 5636 5637 5641 5643 5645 5645 5643 5646 5652 5658 5663 5668 5672 5674 5677 5680 5682 5684 5686 5690 5693 5693 5695 5700 5703 5706 5708 5711 5714 5716 5719 5722 5727 5734 5736 5737 5739 5740 5741 5740 5739 5742 5743 5743 5745 5748 5749 5749 5751 5756 5760 5762 5762 5762 5763 5765 5766 5767 5766 5765 5764 5764 5765 5764 5763 5764 5766 5771 5779 5782 5781 5779 5781 5782 5782 5781 5781 5781 5782 5783 5782 5781 5780 5778
5613 5616 5623 5628 5628 5629 5632 5634 5635 5636 5637 5642 5648 5653 5657 5662 5665 5668 5670 5673 5675 5678 5680 5684 5686 5688 5690 5693 5697 5701 5703 5704 5707 5710 5712 5717 5722 5727 5729 5730 5732 5733 5734 5732 5733 5736 5737 5738 5740 5741 5742 5744 5748 5753 5755 5755 5755 5755 5756 5757 5759 5759 5759 5757 5755 5756 5758 5758 5759 5759 5759 5766 5775 5777 5775 5773 5774 5776 5775 5775 5775 5775 5775 5775 5775 5774 5773 5772
5605 5609 5617 5620 5620 5622 5624 5625 5628 5630 5631 5638 5644 5648 5651 5655 5658 5661 5663 5666 5668 5670 5674 5677 5680 5682 5684 5687 5692 5695 5696 5698 5700 5703 5706 5711 5716 5719 5721 5722 5724 5726 5727 5726 5728 5732 5732 5731 5731 5733 5736 5739 5741 5744 5745 5745 5746 5747 5747 5749 5751 5751 5750 5749 5747 5751 5753 5752 5755 5755 5753 5760 5770 5771 5769 5767 5766 5767 5768 5768 5768 5768 5768 5768 5768 5768 5766 5765
5598 5604 5608 5609 5612 5615 5615 5616 5621 5622 5626 5635 5640 5641 5643 5648 5651 5654 5656 5659 5662 5664 5668 5670 5673 5676 5679 5682 5685 5687 5689 5692 5693 5696 5700 5704 5709 5712 5713 5714 5716 5718 5719 5719 5722 5724 5722 5721 5723 5726 5729 5730 5732 5734 5735 5736 5737 5737 5738 5742 5743 5743 5745 5744 5743 5747 5747 5746 5750 5749 5745 5753 5764 5764 5763 5761 5758 5758 5761 5762 5761 5761 5762 5761 5761 5761 5759 5758
5591 5596 5598 5600 5605 5608 5606 5610 5615 5618 5623 5629 5630 5630 5635 5640 5643 5647 5651 5654 5656 5658 5661 5664 5667 5670 5673 5676 5678 5680 5683 5685 5687 5691 5693 5696 5701 5704 5705 5707 5707 5709 5711 5712 5715 5716 5714 5714 5717 5719 5720 5721 5723 5725 5726 5728 5728 5729 5732 5736 5738 5740 5741 5739 5739 5741 5737 5740 5747 5741 5736 5747 5756 5757 5757 5755 5751 5751 5754 5755 5755 5755 5755 5754 5752 5752 5752 5751
5583 5586 5589 5593 5597 5598 5599 5604 5609 5612 5617 5620 5620 5625 5630 5632 5637 5643 5647 5648 5649 5651 5654 5658 5662 5664 5666 5668 5670 5672 5675 5678 5681 5685 5687 5691 5695 5697 5699 5699 5700 5702 5704 5705 5707 5708 5707 5708 5709 5709 5710 5712 5716 5718 5720 5723 5725 5725 5729 5732 5733 5734 5733 5732 5734 5731 5728 5735 5738 5731 5730 5742 5749 5749 5748 5748 5747 5747 5748 5748 5748 5748 5748 5746 5745 5745 5745 5745
5575 5577 5582 5586 5587 5588 5592 5598 5600 5602 5608 5611 5612 5617 5622 5625 5631 5636 5638 5639 5642 5646 5649 5652 5655 5656 5657 5660 5663 5666 5669 5673 5675 5677 5681 5686 5689 5691 5692 5693 5695 5697 5697 5699 5701 5701 5700 5701 5702 5702 5704 5708 5714 5715 5715 5718 5719 5719 5722 5724 5724 5724 5724 5724 5723 5720 5723 5728 5726 5724 5729 5736 5740 5743 5743 5743 5743 5742 5740 5740 5741 5741 5739 5737 5738 5738 5737 5737
5566 5570 5576 5579 5580 5580 5585 5590 5592 5595 5601 5603 5604 5610 5614 5618 5622 5626 5627 5630 5635 5640 5642 5644 5646 5647 5650 5655 5658 5660 5664 5667 5668 5670 5675 5679 5682 5683 5685 5686 5688 5690 5691 5693 5695 5693 5692 5694 5696 5697 5698 5704 5709 5707 5706 5708 5710 5711 5714 5714 5714 5716 5715 5714 5712 5715 5721 5718 5713 5722 5729 5727 5731 5739 5739 5737 5736 5735 5735 5734 5732 5731 5731 5731 5732 5732 5730 5731
5560 5565 5570 5572 5571 5573 5578 5584 5588 5592 5595 5595 5597 5602 5606 5609 5613 5616 5619 5624 5628 5631 5632 5634 5638 5642 5647 5651 5653 5654 5657 5658 5660 5664 5669 5672 5675 5676 5677 5679 5681 5683 5685 5686 5687 5687 5685 5687 5691 5691 5692 5698 5701 5698 5698 5701 5702 5703 5705 5706 5707 5707 5706 5705 5707 5713 5716 5707 5706 5720 5723 5717 5723 5733 5733 5731 5731 5730 5729 5726 5722 5722 5724 5725 5725 5724 5723 5723
5553 5559 5563 5563 5564 5568 5573 5577 5581 5583 5585 5587 5590 5595 5598 5601 5606 5610 5613 5616 5619 5621 5623 5626 5633 5639 5643 5644 5644 5645 5648 5650 5653 5659 5664 5666 5668 5669 5670 5672 5674 5676 5678 5679 5680 5680 5678 5681 5685 5685 5685 5689 5693 5692 5693 5695 5694 5695 5697 5697 5698 5699 5699 5701 5703 5707 5707 5700 5701 5712 5712 5709 5717 5726 5726 5725 5724 5724 5722 5718 5717 5717 5716 5717 5717 5716 5715 5715
5547 5551 5555 5556 5557 5562 5566 5568 5571 5573 5576 5579 5581 5585 5590 5594 5599 5602 5605 5607 5610 5615 5617 5621 5628 5634 5634 5635 5634 5635 5641 5645 5648 5654 5658 5659 5660 5661 5662 5664 5667 5669 5670 5672 5673 5673 5672 5675 5678 5678 5677 5680 5686 5688 5687 5687 5687 5686 5687 5688 5690 5692 5693 5694 5696 5699 5698 5695 5697 5703 5701 5702 5713 5719 5718 5717 5717 5716 5714 5711 5711 5711 5709 5708 5709 5708 5708 5708
5539 5542 5545 5546 5549 5554 5557 5560 5562 5564 5568 5570 5573 5580 5585 5588 5593 5596 5597 5599 5603 5607 5610 5614 5621 5624 5623 5624 5624 5627 5636 5640 5641 5646 5649 5647 5649 5652 5653 5655 5658 5659 5661 5664 5665 5664 5666 5668 5670 5670 5668 5672 5680 5681 5678 5679 5677 5674 5676 5682 5686 5688 5688 5688 5690 5692 5692 5691 5693 5693 5690 5696 5709 5712 5708 5708 5708 5706 5705 5704 5703 5703 5703 5702 5701 5702 5702 5700
5530 5532 5535 5537 5539 5544 5548 5551 5554 5555 5559 5564 5570 5576 5579 5582 5587 5589 5588 5591 5595 5598 5602 5607 5611 5612 5612 5614 5618 5624 5631 5631 5632 5636 5636 5635 5639 5643 5644 5647 5650 5651 5653 5656 5656 5657 5659 5660 5663 5663 5660 5665 5673 5671 5669 5670 5664 5661 5672 5682 5684 5683 5681 5680 5682 5685 5687 5686 5684 5683 5684 5692 5701 5702 5698 5700 5700 5698 5699 5698 5696 5696 5698 5697 5696 5696 5695 5694